| time (UTC) | temp F | wind direction | speed knots | gust knots | rain 1hr in | rain 24hr in | rain mn in | humidity % | barometer mb |
| 20260510081420 | 52 | 92 | 3.5 | 4.3 | 0.00 | 0.00 | 0.00 | 64 | 1015.4 |
| 20260510080916 | 52 | 167 | 3.5 | 4.3 | 0.00 | 0.00 | 0.00 | 62 | 1015.3 |
| 20260510080420 | 52 | 137 | 3.5 | 4.3 | 0.00 | 0.00 | 0.00 | 63 | 1015.2 |
| 20260510075916 | 52 | 120 | 3.5 | 4.3 | 0.00 | 0.00 | 0.00 | 62 | 1015.1 |
| 20260510075420 | 52 | 108 | 2.6 | 6.1 | 0.00 | 0.00 | 0.00 | 62 | 1015.1 |
| 20260510075132 | 51 | 99 | 3.5 | 6.1 | 0.00 | 0.00 | 0.00 | 64 | 1015.2 |
| 20260510074416 | 51 | 131 | 3.5 | 6.1 | 0.00 | 0.00 | 0.00 | 65 | 1015.1 |
| 20260510073917 | 51 | 114 | 3.5 | 4.3 | 0.00 | 0.00 | 0.00 | 69 | 1015.1 |
| 20260510073417 | 51 | 112 | 3.5 | 4.3 | 0.00 | 0.00 | 0.00 | 71 | 1015.1 |
| 20260510072902 | 51 | 140 | 3.5 | 4.3 | 0.00 | 0.00 | 0.00 | 73 | 1015.2 |
| 20260510072402 | 51 | 166 | 3.5 | 4.3 | 0.00 | 0.00 | 0.00 | 74 | 1015.2 |
| 20260510071903 | 51 | 125 | 3.5 | 4.3 | 0.00 | 0.00 | 0.00 | 75 | 1015.2 |
| 20260510071403 | 51 | 121 | 3.5 | 4.3 | 0.00 | 0.00 | 0.00 | 74 | 1015.3 |
| 20260510070903 | 51 | 118 | 2.6 | 4.3 | 0.00 | 0.00 | 0.00 | 74 | 1015.3 |
| 20260510070402 | 51 | 119 | 3.5 | 4.3 | 0.00 | 0.00 | 0.00 | 74 | 1015.3 |
| 20260510065847 | 51 | 117 | 3.5 | 4.3 | 0.00 | 0.00 | 0.00 | 74 | 1015.2 |
| 20260510065347 | 51 | 123 | 3.5 | 4.3 | 0.00 | 0.00 | 0.00 | 75 | 1015.2 |
| 20260510065330 | 51 | 107 | 3.5 | 5.2 | 0.00 | 0.00 | 0.00 | 75 | 1015.1 |
| 20260510064346 | 51 | 128 | 3.5 | 5.2 | 0.00 | 0.00 | 0.00 | 75 | 1015.1 |
| 20260510063846 | 51 | 109 | 3.5 | 4.3 | 0.00 | 0.00 | 0.00 | 75 | 1015.1 |
| 20260510063346 | 51 | 120 | 3.5 | 4.3 | 0.00 | 0.00 | 0.00 | 75 | 1015.1 |
| 20260510062946 | 52 | 120 | 3.5 | 4.3 | 0.00 | 0.00 | 0.00 | 74 | 1015.2 |
| 20260510061847 | 52 | 95 | 3.5 | 4.3 | 0.00 | 0.00 | 0.00 | 73 | 1015.1 |
| 20260510061347 | 52 | 110 | 3.5 | 4.3 | 0.00 | 0.00 | 0.00 | 73 | 1015.2 |
| 20260510060846 | 52 | 122 | 3.5 | 4.3 | 0.00 | 0.00 | 0.00 | 73 | 1015.2 |
| 20260510060336 | 52 | 130 | 3.5 | 4.3 | 0.00 | 0.00 | 0.00 | 73 | 1015.1 |
| 20260510055833 | 52 | 112 | 3.5 | 5.2 | 0.00 | 0.00 | 0.00 | 72 | 1015.2 |
| 20260510055325 | 52 | 101 | 3.5 | 5.2 | 0.00 | 0.00 | 0.00 | 72 | 1015.2 |
| 20260510054824 | 52 | 115 | 3.5 | 4.3 | 0.00 | 0.00 | 0.00 | 72 | 1015.2 |
| 20260510054320 | 52 | 99 | 3.5 | 4.3 | 0.00 | 0.00 | 0.00 | 72 | 1015.2 |
| 20260510053818 | 52 | 106 | 3.5 | 5.2 | 0.00 | 0.00 | 0.00 | 71 | 1015.1 |
| 20260510053321 | 52 | 124 | 3.5 | 5.2 | 0.00 | 0.00 | 0.00 | 70 | 1015.2 |
| 20260510052817 | 52 | 113 | 3.5 | 5.2 | 0.00 | 0.00 | 0.00 | 70 | 1015.1 |
| 20260510052321 | 52 | 105 | 3.5 | 4.3 | 0.00 | 0.00 | 0.00 | 70 | 1015.1 |
| 20260510051819 | 52 | 119 | 3.5 | 4.3 | 0.00 | 0.00 | 0.00 | 70 | 1015.1 |
| 20260510051307 | 53 | 103 | 3.5 | 5.2 | 0.00 | 0.00 | 0.00 | 70 | 1015.1 |
| 20260510050806 | 52 | 114 | 3.5 | 5.2 | 0.00 | 0.00 | 0.00 | 70 | 1015.1 |
| 20260510050305 | 53 | 111 | 3.5 | 5.2 | 0.00 | 0.00 | 0.00 | 69 | 1015.1 |
| 20260510045748 | 53 | 112 | 3.5 | 5.2 | 0.00 | 0.00 | 0.00 | 69 | 1015.1 |
| 20260510045510 | 53 | 111 | 3.5 | 4.3 | 0.00 | 0.00 | 0.00 | 69 | 1015.2 |
| 20260510044747 | 53 | 125 | 3.5 | 4.3 | 0.00 | 0.00 | 0.00 | 69 | 1015.1 |
| 20260510044249 | 53 | 114 | 3.5 | 5.2 | 0.00 | 0.00 | 0.00 | 68 | 1015.2 |
| 20260510043748 | 53 | 123 | 3.5 | 5.2 | 0.00 | 0.00 | 0.00 | 68 | 1015.2 |
| 20260510043249 | 53 | 110 | 3.5 | 5.2 | 0.00 | 0.00 | 0.00 | 68 | 1015.4 |
| 20260510042747 | 53 | 114 | 3.5 | 5.2 | 0.00 | 0.00 | 0.00 | 68 | 1015.3 |
| 20260510042250 | 53 | 110 | 3.5 | 4.3 | 0.00 | 0.00 | 0.00 | 67 | 1015.4 |
| 20260510041747 | 53 | 102 | 3.5 | 4.3 | 0.00 | 0.00 | 0.00 | 67 | 1015.3 |
| 20260510041507 | 53 | 113 | 3.5 | 4.3 | 0.00 | 0.00 | 0.00 | 66 | 1015.3 |
| 20260510040747 | 54 | 100 | 3.5 | 4.3 | 0.00 | 0.00 | 0.00 | 65 | 1015.4 |
| 20260510040248 | 53 | 102 | 3.5 | 5.2 | 0.00 | 0.00 | 0.00 | 65 | 1015.3 |
| 20260510035738 | 53 | 104 | 3.5 | 5.2 | 0.00 | 0.00 | 0.00 | 66 | 1015.3 |
| 20260510035234 | 53 | 96 | 3.5 | 4.3 | 0.00 | 0.00 | 0.00 | 66 | 1015.3 |
| 20260510034718 | 53 | 93 | 3.5 | 4.3 | 0.00 | 0.00 | 0.00 | 65 | 1015.3 |
| 20260510034219 | 53 | 110 | 3.5 | 4.3 | 0.00 | 0.00 | 0.00 | 66 | 1015.3 |
| 20260510033940 | 53 | 113 | 3.5 | 4.3 | 0.00 | 0.00 | 0.00 | 65 | 1015.3 |
| 20260510033219 | 53 | 103 | 3.5 | 3.5 | 0.00 | 0.00 | 0.00 | 65 | 1015.4 |
| 20260510032720 | 53 | 101 | 3.5 | 3.5 | 0.00 | 0.00 | 0.00 | 64 | 1015.5 |
| 20260510032220 | 53 | 102 | 3.5 | 3.5 | 0.00 | 0.00 | 0.00 | 64 | 1015.4 |
| 20260510031720 | 53 | 102 | 3.5 | 5.2 | 0.00 | 0.00 | 0.00 | 64 | 1015.4 |
| 20260510031536 | 53 | 94 | 3.5 | 5.2 | 0.00 | 0.00 | 0.00 | 65 | 1015.4 |
| 20260510030220 | 54 | 107 | 3.5 | 4.3 | 0.00 | 0.00 | 0.00 | 66 | 1015.3 |
| 20260510025942 | 54 | 111 | 3.5 | 3.5 | 0.00 | 0.00 | 0.00 | 66 | 1015.3 |
| 20260510025219 | 54 | 111 | 2.6 | 3.5 | 0.00 | 0.00 | 0.00 | 66 | 1015.3 |
| 20260510024720 | 54 | 104 | 2.6 | 4.3 | 0.00 | 0.00 | 0.00 | 66 | 1015.3 |
| 20260510024220 | 54 | 159 | 3.5 | 4.3 | 0.00 | 0.00 | 0.00 | 66 | 1015.3 |
| 20260510023720 | 54 | 104 | 3.5 | 4.3 | 0.00 | 0.00 | 0.00 | 66 | 1015.3 |
| 20260510023220 | 54 | 103 | 3.5 | 4.3 | 0.00 | 0.00 | 0.00 | 66 | 1015.3 |
| 20260510022707 | 54 | 85 | 3.5 | 4.3 | 0.00 | 0.00 | 0.00 | 67 | 1015.2 |
| 20260510022425 | 54 | 160 | 3.5 | 4.3 | 0.00 | 0.00 | 0.00 | 66 | 1015.2 |
| 20260510021913 | 54 | 108 | 3.5 | 4.3 | 0.00 | 0.00 | 0.00 | 67 | 1015.1 |
| 20260510021149 | 54 | 107 | 3.5 | 3.5 | 0.00 | 0.00 | 0.00 | 68 | 1015.0 |
| 20260510020649 | 54 | 95 | 3.5 | 4.3 | 0.00 | 0.00 | 0.00 | 69 | 1014.9 |
| 20260510020149 | 55 | 98 | 3.5 | 4.3 | 0.00 | 0.00 | 0.00 | 69 | 1014.8 |
| 20260510015649 | 55 | 95 | 3.5 | 4.3 | 0.00 | 0.00 | 0.00 | 69 | 1014.8 |
| 20260510015149 | 55 | 101 | 3.5 | 4.3 | 0.00 | 0.00 | 0.00 | 70 | 1014.7 |
| 20260510014649 | 55 | 94 | 3.5 | 3.5 | 0.00 | 0.00 | 0.00 | 70 | 1014.5 |
| 20260510014636 | 55 | 92 | 3.5 | 3.5 | 0.00 | 0.00 | 0.00 | 71 | 1014.5 |
| 20260510013915 | 55 | 92 | 3.5 | 3.5 | 0.00 | 0.00 | 0.00 | 71 | 1014.5 |
| 20260510013150 | 55 | 85 | 3.5 | 4.3 | 0.00 | 0.00 | 0.00 | 71 | 1014.4 |
| 20260510012650 | 55 | 83 | 3.5 | 4.3 | 0.00 | 0.00 | 0.00 | 71 | 1014.3 |
| 20260510012150 | 55 | 88 | 3.5 | 4.3 | 0.00 | 0.00 | 0.00 | 70 | 1014.2 |
| 20260510011646 | 55 | 89 | 3.5 | 4.3 | 0.00 | 0.00 | 0.00 | 71 | 1014.2 |
| 20260510011149 | 55 | 102 | 3.5 | 4.3 | 0.00 | 0.00 | 0.00 | 71 | 1014.2 |
| 20260510010650 | 55 | 91 | 3.5 | 4.3 | 0.00 | 0.00 | 0.00 | 72 | 1014.0 |
| 20260510010150 | 55 | 84 | 3.5 | 4.3 | 0.00 | 0.00 | 0.00 | 72 | 1014.0 |
| 20260510005650 | 55 | 83 | 3.5 | 4.3 | 0.00 | 0.00 | 0.00 | 73 | 1014.1 |
| 20260510005136 | 55 | 99 | 3.5 | 4.3 | 0.00 | 0.00 | 0.00 | 73 | 1014.0 |
| 20260510004636 | 56 | 163 | 3.5 | 4.3 | 0.00 | 0.00 | 0.00 | 72 | 1013.8 |
| 20260510004136 | 56 | 95 | 3.5 | 4.3 | 0.00 | 0.00 | 0.00 | 71 | 1013.6 |
| 20260510003901 | 56 | 92 | 3.5 | 3.5 | 0.00 | 0.00 | 0.00 | 70 | 1013.5 |
| 20260510003136 | 56 | 94 | 3.5 | 3.5 | 0.00 | 0.00 | 0.00 | 70 | 1013.5 |
| 20260510002637 | 56 | 94 | 3.5 | 4.3 | 0.00 | 0.00 | 0.00 | 69 | 1013.4 |
| 20260510002137 | 56 | 88 | 3.5 | 4.3 | 0.00 | 0.00 | 0.00 | 69 | 1013.4 |
| 20260510001637 | 56 | 89 | 3.5 | 4.3 | 0.00 | 0.00 | 0.00 | 72 | 1013.4 |
| 20260510001136 | 56 | 96 | 3.5 | 4.3 | 0.00 | 0.00 | 0.00 | 73 | 1013.4 |
| 20260510000636 | 57 | 95 | 3.5 | 4.3 | 0.00 | 0.00 | 0.00 | 73 | 1013.3 |
| 20260510000137 | 57 | 71 | 3.5 | 4.3 | 0.00 | 0.00 | 0.00 | 74 | 1013.2 |
| 20260509235636 | 57 | 95 | 3.5 | 4.3 | 0.00 | 0.00 | 0.00 | 74 | 1013.1 |
| 20260509235136 | 58 | 90 | 3.5 | 4.3 | 0.00 | 0.00 | 0.00 | 73 | 1013.1 |
| 20260509234634 | 58 | 84 | 3.5 | 4.3 | 0.00 | 0.00 | 0.00 | 72 | 1013.1 |
| 20260509234134 | 58 | 80 | 3.5 | 4.3 | 0.00 | 0.00 | 0.00 | 71 | 1013.1 |
| 20260509233856 | 59 | 97 | 2.6 | 4.3 | 0.00 | 0.00 | 0.00 | 70 | 1013.1 |
| 20260509233134 | 59 | 95 | 2.6 | 4.3 | 0.00 | 0.00 | 0.00 | 70 | 1013.0 |
| 20260509232634 | 59 | 85 | 2.6 | 4.3 | 0.00 | 0.00 | 0.00 | 69 | 1013.0 |
| 20260509232135 | 59 | 98 | 2.6 | 4.3 | 0.00 | 0.00 | 0.00 | 68 | 1013.0 |
| 20260509231635 | 60 | 94 | 2.6 | 4.3 | 0.00 | 0.00 | 0.00 | 67 | 1013.0 |
| 20260509231614 | 60 | 103 | 2.6 | 4.3 | 0.00 | 0.00 | 0.00 | 66 | 1013.0 |
| 20260509230954 | 60 | 91 | 2.6 | 4.3 | 0.00 | 0.00 | 0.00 | 66 | 1012.9 |
| 20260509225635 | 60 | 167 | 2.6 | 3.5 | 0.00 | 0.00 | 0.00 | 67 | 1013.0 |
| 20260509225135 | 60 | 91 | 1.7 | 3.5 | 0.00 | 0.00 | 0.00 | 69 | 1013.0 |
| 20260509225115 | 60 | 105 | 1.7 | 3.5 | 0.00 | 0.00 | 0.00 | 68 | 1012.9 |
| 20260509224618 | 60 | 87 | 1.7 | 3.5 | 0.00 | 0.00 | 0.00 | 67 | 1013.0 |
| 20260509223631 | 60 | 175 | 1.7 | 3.5 | 0.00 | 0.00 | 0.00 | 69 | 1013.0 |
| 20260509223128 | 60 | 278 | 1.7 | 4.3 | 0.00 | 0.00 | 0.00 | 68 | 1013.0 |
| 20260509222625 | 60 | 76 | 1.7 | 4.3 | 0.00 | 0.00 | 0.00 | 68 | 1013.1 |
| 20260509222125 | 60 | 89 | 1.7 | 3.5 | 0.00 | 0.00 | 0.00 | 68 | 1013.1 |
| 20260509221625 | 60 | 99 | 1.7 | 3.5 | 0.00 | 0.00 | 0.00 | 68 | 1013.0 |
| 20260509221125 | 60 | 117 | 2.6 | 4.3 | 0.00 | 0.00 | 0.00 | 68 | 1013.0 |
| 20260509220625 | 60 | 106 | 1.7 | 4.3 | 0.00 | 0.00 | 0.00 | 68 | 1013.0 |
| 20260509220125 | 60 | 86 | 1.7 | 4.3 | 0.00 | 0.00 | 0.00 | 68 | 1012.9 |
| 20260509215625 | 60 | 80 | 1.7 | 3.5 | 0.00 | 0.00 | 0.00 | 69 | 1013.0 |
| 20260509215126 | 60 | 109 | 1.7 | 3.5 | 0.00 | 0.00 | 0.00 | 69 | 1012.9 |
| 20260509214626 | 60 | 98 | 2.6 | 3.5 | 0.00 | 0.00 | 0.00 | 68 | 1013.0 |
| 20260509214125 | 60 | 125 | 1.7 | 3.5 | 0.00 | 0.00 | 0.00 | 69 | 1012.9 |
| 20260509213625 | 60 | 111 | 1.7 | 5.2 | 0.00 | 0.00 | 0.00 | 69 | 1012.9 |
| 20260509213126 | 60 | 89 | 1.7 | 5.2 | 0.00 | 0.00 | 0.00 | 68 | 1012.7 |
| 20260509212627 | 61 | 70 | 2.6 | 5.2 | 0.00 | 0.00 | 0.00 | 67 | 1012.6 |
| 20260509212126 | 60 | 83 | 1.7 | 4.3 | 0.00 | 0.00 | 0.00 | 68 | 1012.7 |
| 20260509211844 | 60 | 64 | 1.7 | 3.5 | 0.00 | 0.00 | 0.00 | 68 | 1012.7 |
| 20260509211123 | 60 | 90 | 1.7 | 4.3 | 0.00 | 0.00 | 0.00 | 68 | 1012.6 |
| 20260509211110 | 60 | 100 | 1.7 | 4.3 | 0.00 | 0.00 | 0.00 | 67 | 1012.6 |
| 20260509210124 | 60 | 95 | 1.7 | 4.3 | 0.00 | 0.00 | 0.00 | 66 | 1012.6 |
| 20260509205623 | 60 | 84 | 2.6 | 7.0 | 0.00 | 0.00 | 0.00 | 67 | 1012.5 |
| 20260509205136 | 61 | 77 | 2.6 | 7.0 | 0.00 | 0.00 | 0.00 | 66 | 1012.5 |
| 20260509204623 | 62 | 156 | 1.7 | 4.3 | 0.00 | 0.00 | 0.00 | 65 | 1012.5 |
| 20260509204123 | 62 | 75 | 1.7 | 4.3 | 0.00 | 0.00 | 0.00 | 64 | 1012.4 |
| 20260509203624 | 62 | 238 | 1.7 | 4.3 | 0.00 | 0.00 | 0.00 | 63 | 1012.4 |
| 20260509203123 | 62 | 66 | 1.7 | 4.3 | 0.00 | 0.00 | 0.00 | 64 | 1012.3 |
| 20260509202623 | 63 | 59 | 1.7 | 4.3 | 0.00 | 0.00 | 0.00 | 63 | 1012.4 |
| 20260509202612 | 63 | 58 | 1.7 | 4.3 | 0.00 | 0.00 | 0.00 | 61 | 1012.3 |
| 20260509201623 | 63 | 90 | 1.7 | 5.2 | 0.00 | 0.00 | 0.00 | 62 | 1012.3 |
| 20260509201124 | 62 | 93 | 1.7 | 5.2 | 0.00 | 0.00 | 0.00 | 62 | 1012.1 |
| 20260509200624 | 62 | 149 | 1.7 | 4.3 | 0.00 | 0.00 | 0.00 | 63 | 1012.2 |
| 20260509200121 | 62 | 53 | 1.7 | 4.3 | 0.00 | 0.00 | 0.00 | 63 | 1012.2 |
| 20260509195617 | 62 | 137 | 1.7 | 4.3 | 0.00 | 0.00 | 0.00 | 62 | 1012.2 |
| 20260509195341 | 61 | 269 | 1.7 | 3.5 | 0.00 | 0.00 | 0.00 | 64 | 1012.3 |
| 20260509195108 | 61 | 115 | 1.7 | 4.3 | 0.00 | 0.00 | 0.00 | 63 | 1012.2 |
| 20260509194119 | 60 | 121 | 1.7 | 5.2 | 0.00 | 0.00 | 0.00 | 64 | 1012.3 |
| 20260509193618 | 61 | 98 | 1.7 | 5.2 | 0.00 | 0.00 | 0.00 | 63 | 1012.4 |
| 20260509193119 | 61 | 108 | 1.7 | 5.2 | 0.00 | 0.00 | 0.00 | 63 | 1012.6 |
| 20260509192619 | 61 | 191 | 1.7 | 5.2 | 0.00 | 0.00 | 0.00 | 63 | 1012.5 |
| 20260509192118 | 61 | 352 | 1.7 | 5.2 | 0.00 | 0.00 | 0.00 | 63 | 1012.5 |
| 20260509191618 | 61 | 91 | 1.7 | 5.2 | 0.00 | 0.00 | 0.00 | 60 | 1012.5 |
| 20260509191119 | 60 | 105 | 1.7 | 4.3 | 0.00 | 0.00 | 0.00 | 63 | 1012.5 |
| 20260509190619 | 60 | 141 | 2.6 | 5.2 | 0.00 | 0.00 | 0.00 | 64 | 1012.6 |
| 20260509190604 | 59 | 186 | 2.6 | 5.2 | 0.00 | 0.00 | 0.00 | 69 | 1012.6 |
| 20260509185619 | 59 | 97 | 2.6 | 4.3 | 0.00 | 0.00 | 0.00 | 69 | 1012.7 |
| 20260509185119 | 59 | 87 | 2.6 | 5.2 | 0.00 | 0.00 | 0.00 | 69 | 1012.9 |
| 20260509185103 | 59 | 95 | 2.6 | 5.2 | 0.00 | 0.00 | 0.00 | 69 | 1012.9 |
| 20260509184117 | 59 | 58 | 2.6 | 5.2 | 0.00 | 0.00 | 0.00 | 69 | 1013.0 |
| 20260509183613 | 59 | 84 | 2.6 | 5.2 | 0.00 | 0.00 | 0.00 | 69 | 1013.0 |
| 20260509183113 | 59 | 88 | 2.6 | 6.1 | 0.00 | 0.00 | 0.00 | 69 | 1013.0 |
| 20260509182613 | 59 | 66 | 2.6 | 6.1 | 0.00 | 0.00 | 0.00 | 69 | 1013.0 |
| 20260509182113 | 59 | 105 | 2.6 | 4.3 | 0.00 | 0.00 | 0.00 | 68 | 1013.0 |
| 20260509181613 | 59 | 153 | 2.6 | 6.1 | 0.00 | 0.00 | 0.00 | 68 | 1013.1 |
| 20260509181116 | 59 | 163 | 2.6 | 6.1 | 0.00 | 0.00 | 0.00 | 66 | 1013.1 |
| 20260509181109 | 60 | 24 | 2.6 | 5.2 | 0.00 | 0.00 | 0.00 | 66 | 1013.1 |
| 20260509180115 | 60 | 95 | 1.7 | 5.2 | 0.00 | 0.00 | 0.00 | 64 | 1013.1 |
| 20260509175614 | 61 | 120 | 1.7 | 4.3 | 0.00 | 0.00 | 0.00 | 63 | 1013.2 |
| 20260509175114 | 61 | 147 | 1.7 | 4.3 | 0.00 | 0.00 | 0.00 | 62 | 1013.2 |
| 20260509175057 | 60 | 96 | 1.7 | 5.2 | 0.00 | 0.00 | 0.00 | 63 | 1013.3 |
| 20260509174114 | 60 | 69 | 2.6 | 5.2 | 0.00 | 0.00 | 0.00 | 65 | 1013.3 |
| 20260509173611 | 61 | 82 | 1.7 | 4.3 | 0.00 | 0.00 | 0.00 | 63 | 1013.2 |
| 20260509173111 | 60 | 86 | 1.7 | 4.3 | 0.00 | 0.00 | 0.00 | 63 | 1013.3 |
| 20260509172608 | 60 | 142 | 1.7 | 4.3 | 0.00 | 0.00 | 0.00 | 63 | 1013.3 |
| 20260509172550 | 60 | 189 | 2.6 | 4.3 | 0.00 | 0.00 | 0.00 | 65 | 1013.5 |
| 20260509171556 | 60 | 183 | 2.6 | 5.2 | 0.00 | 0.00 | 0.00 | 63 | 1013.5 |
| 20260509171057 | 61 | 124 | 1.7 | 5.2 | 0.00 | 0.00 | 0.00 | 64 | 1013.6 |
| 20260509170555 | 60 | 15 | 1.7 | 5.2 | 0.00 | 0.00 | 0.00 | 64 | 1013.6 |
| 20260509165557 | 59 | 90 | 2.6 | 4.3 | 0.00 | 0.00 | 0.00 | 66 | 1013.5 |
| 20260509165056 | 58 | 75 | 2.6 | 4.3 | 0.00 | 0.00 | 0.00 | 68 | 1013.6 |
| 20260509164556 | 57 | 83 | 2.6 | 5.2 | 0.00 | 0.00 | 0.00 | 67 | 1013.4 |
| 20260509164055 | 56 | 91 | 3.5 | 5.2 | 0.00 | 0.00 | 0.00 | 71 | 1013.3 |
| 20260509163555 | 55 | 88 | 3.5 | 5.2 | 0.00 | 0.00 | 0.00 | 74 | 1013.3 |
| 20260509163538 | 55 | 72 | 3.5 | 5.2 | 0.00 | 0.00 | 0.00 | 73 | 1013.5 |
| 20260509162659 | 56 | 87 | 3.5 | 4.3 | 0.00 | 0.00 | 0.00 | 72 | 1013.5 |
| 20260509161556 | 56 | 175 | 3.5 | 5.2 | 0.00 | 0.00 | 0.00 | 70 | 1013.5 |
| 20260509161056 | 57 | 88 | 3.5 | 5.2 | 0.00 | 0.00 | 0.00 | 71 | 1013.3 |
| 20260509160556 | 57 | 97 | 3.5 | 5.2 | 0.00 | 0.00 | 0.00 | 69 | 1013.4 |
| 20260509160059 | 57 | 109 | 3.5 | 6.1 | 0.00 | 0.00 | 0.00 | 69 | 1013.3 |
| 20260509155546 | 57 | 98 | 3.5 | 6.1 | 0.00 | 0.00 | 0.00 | 68 | 1013.4 |
| 20260509155046 | 56 | 98 | 3.5 | 6.1 | 0.00 | 0.00 | 0.00 | 71 | 1013.3 |
| 20260509155023 | 56 | 89 | 2.6 | 4.3 | 0.00 | 0.00 | 0.00 | 70 | 1013.2 |
| 20260509154511 | 56 | 104 | 2.6 | 3.5 | 0.00 | 0.00 | 0.00 | 70 | 1013.4 |
| 20260509153528 | 56 | 100 | 3.5 | 5.2 | 0.00 | 0.00 | 0.00 | 70 | 1013.4 |
| 20260509153028 | 56 | 94 | 3.5 | 5.2 | 0.00 | 0.00 | 0.00 | 69 | 1013.5 |
| 20260509152541 | 56 | 109 | 2.6 | 5.2 | 0.00 | 0.00 | 0.00 | 70 | 1013.4 |
| 20260509152029 | 56 | 102 | 2.6 | 4.3 | 0.00 | 0.00 | 0.00 | 69 | 1013.5 |
| 20260509151515 | 56 | 87 | 2.6 | 4.3 | 0.00 | 0.00 | 0.00 | 70 | 1013.5 |
| 20260509151013 | 56 | 83 | 2.6 | 4.3 | 0.00 | 0.00 | 0.00 | 70 | 1013.5 |
| 20260509150957 | 57 | 83 | 3.5 | 5.2 | 0.00 | 0.00 | 0.00 | 69 | 1013.5 |
| 20260509145957 | 57 | 79 | 3.5 | 5.2 | 0.00 | 0.00 | 0.00 | 70 | 1013.5 |
| 20260509145733 | 57 | 92 | 3.5 | 6.1 | 0.00 | 0.00 | 0.00 | 69 | 1013.6 |
| 20260509144957 | 57 | 79 | 3.5 | 6.1 | 0.00 | 0.00 | 0.00 | 66 | 1013.5 |
| 20260509144457 | 57 | 125 | 3.5 | 5.2 | 0.00 | 0.00 | 0.00 | 68 | 1013.5 |
| 20260509143957 | 57 | 69 | 2.6 | 4.3 | 0.00 | 0.00 | 0.00 | 67 | 1013.4 |
| 20260509143457 | 57 | 82 | 2.6 | 5.2 | 0.00 | 0.00 | 0.00 | 67 | 1013.4 |
| 20260509142457 | 57 | 83 | 2.6 | 4.3 | 0.00 | 0.00 | 0.00 | 65 | 1013.2 |
| 20260509141957 | 56 | 84 | 3.5 | 4.3 | 0.00 | 0.00 | 0.00 | 68 | 1013.2 |
| 20260509141457 | 56 | 92 | 3.5 | 4.3 | 0.00 | 0.00 | 0.00 | 67 | 1013.1 |
| 20260509140957 | 56 | 89 | 3.5 | 4.3 | 0.00 | 0.00 | 0.00 | 69 | 1013.2 |
| 20260509140457 | 55 | 80 | 3.5 | 4.3 | 0.00 | 0.00 | 0.00 | 70 | 1013.3 |
| 20260509135957 | 55 | 74 | 3.5 | 4.3 | 0.00 | 0.00 | 0.00 | 70 | 1013.3 |
| 20260509135458 | 55 | 83 | 3.5 | 5.2 | 0.00 | 0.00 | 0.00 | 70 | 1013.4 |
| 20260509134957 | 54 | 93 | 3.5 | 5.2 | 0.00 | 0.00 | 0.00 | 70 | 1013.5 |
| 20260509134458 | 54 | 110 | 3.5 | 5.2 | 0.00 | 0.00 | 0.00 | 72 | 1013.5 |
| 20260509133958 | 53 | 156 | 3.5 | 5.2 | 0.00 | 0.00 | 0.00 | 72 | 1013.6 |
| 20260509133539 | 53 | 92 | 3.5 | 5.2 | 0.00 | 0.00 | 0.00 | 74 | 1013.5 |
| 20260509132930 | 52 | 92 | 3.5 | 4.3 | 0.00 | 0.00 | 0.00 | 75 | 1013.6 |
| 20260509132430 | 52 | 94 | 3.5 | 4.3 | 0.00 | 0.00 | 0.00 | 75 | 1013.5 |
| 20260509131429 | 52 | 112 | 3.5 | 4.3 | 0.00 | 0.00 | 0.00 | 75 | 1013.5 |
| 20260509130928 | 52 | 164 | 3.5 | 4.3 | 0.00 | 0.00 | 0.00 | 76 | 1013.5 |
| 20260509130428 | 51 | 110 | 3.5 | 4.3 | 0.00 | 0.00 | 0.00 | 77 | 1013.6 |
| 20260509130151 | 51 | 82 | 3.5 | 4.3 | 0.00 | 0.00 | 0.00 | 78 | 1013.8 |
| 20260509125653 | 51 | 99 | 3.5 | 3.5 | 0.00 | 0.00 | 0.00 | 78 | 1013.9 |
| 20260509124929 | 51 | 112 | 3.5 | 4.3 | 0.00 | 0.00 | 0.00 | 79 | 1013.9 |
| 20260509124429 | 51 | 124 | 3.5 | 4.3 | 0.00 | 0.00 | 0.00 | 79 | 1014.0 |
| 20260509124418 | 51 | 101 | 3.5 | 5.2 | 0.00 | 0.00 | 0.00 | 79 | 1014.0 |
| 20260509123428 | 51 | 117 | 3.5 | 5.2 | 0.00 | 0.00 | 0.00 | 79 | 1014.0 |
| 20260509123022 | 51 | 108 | 3.5 | 4.3 | 0.00 | 0.00 | 0.00 | 78 | 1014.0 |
| 20260509121930 | 51 | 114 | 2.6 | 3.5 | 0.00 | 0.00 | 0.00 | 79 | 1013.9 |
| 20260509121429 | 51 | 110 | 2.6 | 3.5 | 0.00 | 0.00 | 0.00 | 78 | 1013.9 |
| 20260509120930 | 51 | 107 | 3.5 | 3.5 | 0.00 | 0.00 | 0.00 | 78 | 1014.0 |
| 20260509120430 | 51 | 123 | 3.5 | 4.3 | 0.00 | 0.00 | 0.00 | 79 | 1014.0 |
| 20260509115930 | 51 | 108 | 3.5 | 4.3 | 0.00 | 0.00 | 0.00 | 79 | 1013.9 |
| 20260509115430 | 51 | 112 | 3.5 | 4.3 | 0.00 | 0.00 | 0.00 | 79 | 1013.9 |
| 20260509114930 | 50 | 112 | 3.5 | 4.3 | 0.00 | 0.00 | 0.00 | 80 | 1013.8 |
| 20260509114424 | 50 | 109 | 3.5 | 4.3 | 0.00 | 0.00 | 0.00 | 80 | 1013.9 |
| 20260509113917 | 50 | 110 | 3.5 | 4.3 | 0.00 | 0.00 | 0.00 | 80 | 1014.0 |
| 20260509113417 | 50 | 130 | 3.5 | 4.3 | 0.00 | 0.00 | 0.00 | 80 | 1013.9 |
| 20260509112915 | 50 | 121 | 3.5 | 4.3 | 0.00 | 0.00 | 0.00 | 80 | 1013.9 |
| 20260509112416 | 50 | 112 | 3.5 | 5.2 | 0.00 | 0.00 | 0.00 | 80 | 1013.8 |
| 20260509111859 | 50 | 108 | 3.5 | 5.2 | 0.00 | 0.00 | 0.00 | 80 | 1013.8 |
| 20260509111359 | 50 | 106 | 3.5 | 4.3 | 0.00 | 0.00 | 0.00 | 80 | 1013.8 |
| 20260509110859 | 50 | 108 | 3.5 | 4.3 | 0.00 | 0.00 | 0.00 | 81 | 1013.9 |
| 20260509110400 | 50 | 107 | 3.5 | 4.3 | 0.00 | 0.00 | 0.00 | 81 | 1013.9 |
| 20260509105900 | 50 | 122 | 3.5 | 4.3 | 0.00 | 0.00 | 0.00 | 81 | 1013.6 |
| 20260509105348 | 49 | 117 | 3.5 | 5.2 | 0.00 | 0.00 | 0.00 | 81 | 1013.8 |
| 20260509104847 | 49 | 84 | 3.5 | 5.2 | 0.00 | 0.00 | 0.00 | 82 | 1013.6 |
| 20260509104839 | 49 | 118 | 2.6 | 3.5 | 0.00 | 0.00 | 0.00 | 82 | 1013.6 |
| 20260509103846 | 49 | 121 | 2.6 | 4.3 | 0.00 | 0.00 | 0.00 | 82 | 1013.5 |
| 20260509103345 | 49 | 117 | 2.6 | 4.3 | 0.00 | 0.00 | 0.00 | 82 | 1013.6 |
| 20260509103107 | 49 | 98 | 3.5 | 4.3 | 0.00 | 0.00 | 0.00 | 82 | 1013.8 |
| 20260509102346 | 49 | 98 | 3.5 | 4.3 | 0.00 | 0.00 | 0.00 | 82 | 1013.8 |
| 20260509101846 | 49 | 107 | 2.6 | 4.3 | 0.00 | 0.00 | 0.00 | 81 | 1013.6 |
| 20260509101834 | 49 | 124 | 3.5 | 4.3 | 0.00 | 0.00 | 0.00 | 81 | 1013.6 |
| 20260509100846 | 49 | 88 | 3.5 | 4.3 | 0.00 | 0.00 | 0.00 | 81 | 1013.6 |
| 20260509100605 | 49 | 94 | 3.5 | 4.3 | 0.00 | 0.00 | 0.00 | 80 | 1013.6 |
| 20260509095830 | 49 | 91 | 3.5 | 4.3 | 0.00 | 0.00 | 0.00 | 81 | 1013.5 |
| 20260509095331 | 49 | 103 | 2.6 | 3.5 | 0.00 | 0.00 | 0.00 | 80 | 1013.6 |
| 20260509094844 | 49 | 101 | 2.6 | 3.5 | 0.00 | 0.00 | 0.00 | 79 | 1013.5 |
| 20260509094331 | 49 | 102 | 3.5 | 4.3 | 0.00 | 0.00 | 0.00 | 79 | 1013.5 |
| 20260509093831 | 49 | 89 | 3.5 | 4.3 | 0.00 | 0.00 | 0.00 | 79 | 1013.4 |
| 20260509093331 | 49 | 101 | 3.5 | 4.3 | 0.00 | 0.00 | 0.00 | 79 | 1013.4 |
| 20260509092832 | 49 | 95 | 2.6 | 4.3 | 0.00 | 0.00 | 0.00 | 78 | 1013.5 |
| 20260509092331 | 49 | 91 | 2.6 | 3.5 | 0.00 | 0.00 | 0.00 | 78 | 1013.5 |
| 20260509091832 | 49 | 103 | 2.6 | 3.5 | 0.00 | 0.00 | 0.00 | 78 | 1013.5 |
| 20260509091641 | 49 | 100 | 2.6 | 3.5 | 0.00 | 0.00 | 0.00 | 77 | 1013.5 |
| 20260509090331 | 49 | 100 | 3.5 | 4.3 | 0.00 | 0.00 | 0.00 | 76 | 1013.8 |
| 20260509085832 | 49 | 87 | 3.5 | 5.2 | 0.00 | 0.00 | 0.00 | 76 | 1013.6 |
| 20260509085318 | 49 | 221 | 3.5 | 5.2 | 0.00 | 0.00 | 0.00 | 76 | 1013.6 |
| 20260509085306 | 49 | 82 | 3.5 | 5.2 | 0.00 | 0.00 | 0.00 | 75 | 1013.8 |
| 20260509084307 | 49 | 98 | 3.5 | 6.1 | 0.00 | 0.00 | 0.00 | 75 | 1013.8 |
| 20260509083801 | 49 | 128 | 3.5 | 6.1 | 0.00 | 0.00 | 0.00 | 75 | 1013.8 |
| 20260509083301 | 49 | 129 | 3.5 | 5.2 | 0.00 | 0.00 | 0.00 | 75 | 1013.8 |
| 20260509082801 | 49 | 96 | 3.5 | 4.3 | 0.00 | 0.00 | 0.00 | 74 | 1013.9 |
| 20260509082300 | 49 | 105 | 3.5 | 3.5 | 0.00 | 0.00 | 0.00 | 74 | 1013.9 |